Wetterdaten: Dienstag, 19.05.2015
Datum Zeit Temp. A. Feuchte A. Luftdruck Regen Wind Richtung Richtung Sonnenschein ET UV Solar Taupunkt Windchill Windben Empfang
19.05.2015 00:00 14,9 C 83 % 1006,3 hPa 0,0 l/m 0,0 km/h (0 Bft) S 186 0 min 0,000 mm 0,0 UV-I 0 W/m 12,0 C 14,9 C 0,0 km/h (0 Bft) 0,00 %
19.05.2015 00:15 15,2 C 83 % 1006,0 hPa 0,0 l/m 0,0 km/h (0 Bft) S-SW 198 0 min 0,000 mm 0,0 UV-I 0 W/m 12,3 C 15,2 C 0,0 km/h (0 Bft) 0,00 %
19.05.2015 00:30 15,5 C 82 % 1005,9 hPa 0,0 l/m 0,0 km/h (0 Bft) S 173 0 min 0,000 mm 0,0 UV-I 0 W/m 12,4 C 15,5 C 0,0 km/h (0 Bft) 0,00 %
19.05.2015 00:45 15,4 C 84 % 1006,2 hPa 0,0 l/m 0,0 km/h (0 Bft) S 187 0 min 0,000 mm 0,0 UV-I 0 W/m 12,7 C 15,4 C 0,0 km/h (0 Bft) 0,00 %
19.05.2015 01:00 15,4 C 83 % 1006,2 hPa 0,0 l/m 0,0 km/h (0 Bft) S 187 0 min 0,000 mm 0,0 UV-I 0 W/m 12,5 C 15,4 C 0,0 km/h (0 Bft) 0,00 %
19.05.2015 01:15 15,6 C 82 % 1006,0 hPa 0,0 l/m 0,0 km/h (0 Bft) S 177 0 min 0,000 mm 0,0 UV-I 0 W/m 12,5 C 15,6 C 0,0 km/h (0 Bft) 0,00 %
19.05.2015 01:30 15,6 C 83 % 1005,7 hPa 0,0 l/m 0,0 km/h (0 Bft) S-SW 197 0 min 0,000 mm 0,0 UV-I 0 W/m 12,7 C 15,6 C 0,0 km/h (0 Bft) 0,00 %
19.05.2015 01:45 15,7 C 83 % 1005,3 hPa 0,0 l/m 0,0 km/h (0 Bft) S 182 0 min 0,000 mm 0,0 UV-I 0 W/m 12,8 C 15,7 C 0,0 km/h (0 Bft) 0,00 %
19.05.2015 02:00 15,7 C 84 % 1005,0 hPa 0,0 l/m 0,4 km/h (0 Bft) SW 227 0 min 0,000 mm 0,0 UV-I 0 W/m 13,0 C 15,7 C 4,0 km/h (1 Bft) 0,00 %
19.05.2015 02:15 15,7 C 84 % 1004,7 hPa 0,0 l/m 0,0 km/h (0 Bft) S-SW 200 0 min 0,000 mm 0,0 UV-I 0 W/m 13,0 C 15,7 C 0,0 km/h (0 Bft) 0,00 %
19.05.2015 02:30 15,7 C 83 % 1004,6 hPa 0,0 l/m 0,0 km/h (0 Bft) S-SW 209 0 min 0,000 mm 0,0 UV-I 0 W/m 12,8 C 15,7 C 0,0 km/h (0 Bft) 0,00 %
19.05.2015 02:45 15,5 C 84 % 1004,6 hPa 0,0 l/m 0,0 km/h (0 Bft) S-SW 212 0 min 0,000 mm 0,0 UV-I 0 W/m 12,8 C 15,5 C 0,0 km/h (0 Bft) 0,00 %
19.05.2015 03:00 15,5 C 86 % 1004,5 hPa 0,0 l/m 0,0 km/h (0 Bft) S 183 0 min 0,000 mm 0,0 UV-I 0 W/m 13,2 C 15,5 C 0,0 km/h (0 Bft) 0,00 %
19.05.2015 03:15 15,3 C 87 % 1004,6 hPa 0,0 l/m 0,0 km/h (0 Bft) S 179 0 min 0,000 mm 0,0 UV-I 0 W/m 13,1 C 15,3 C 0,0 km/h (0 Bft) 0,00 %
19.05.2015 03:30 15,2 C 87 % 1004,7 hPa 0,0 l/m 0,0 km/h (0 Bft) S 180 0 min 0,000 mm 0,0 UV-I 0 W/m 13,0 C 15,2 C 0,0 km/h (0 Bft) 0,00 %
19.05.2015 03:45 15,1 C 88 % 1004,7 hPa 0,0 l/m 0,0 km/h (0 Bft) S 187 0 min 0,000 mm 0,0 UV-I 0 W/m 13,1 C 15,1 C 0,0 km/h (0 Bft) 0,00 %
19.05.2015 04:00 14,9 C 89 % 1004,7 hPa 0,0 l/m 0,0 km/h (0 Bft) S 183 0 min 0,000 mm 0,0 UV-I 0 W/m 13,1 C 14,9 C 0,0 km/h (0 Bft) 0,00 %
19.05.2015 04:15 14,8 C 90 % 1004,5 hPa 0,0 l/m 0,0 km/h (0 Bft) O-SO 114 0 min 0,000 mm 0,0 UV-I 0 W/m 13,2 C 14,8 C 0,0 km/h (0 Bft) 0,00 %
19.05.2015 04:30 14,7 C 90 % 1004,5 hPa 0,0 l/m 0,0 km/h (0 Bft) SO 131 0 min 0,000 mm 0,0 UV-I 0 W/m 13,1 C 14,7 C 0,0 km/h (0 Bft) 0,00 %
19.05.2015 04:45 14,6 C 91 % 1004,4 hPa 0,0 l/m 0,0 km/h (0 Bft) S 173 0 min 0,000 mm 0,0 UV-I 0 W/m 13,1 C 14,6 C 0,0 km/h (0 Bft) 0,00 %
19.05.2015 05:00 14,5 C 93 % 1004,7 hPa 0,0 l/m 0,0 km/h (0 Bft) SW 222 0 min 0,000 mm 0,0 UV-I 0 W/m 13,4 C 14,5 C 0,0 km/h (0 Bft) 0,00 %
19.05.2015 05:15 14,3 C 93 % 1004,7 hPa 0,0 l/m 0,0 km/h (0 Bft) S 184 0 min 0,000 mm 0,0 UV-I 0 W/m 13,2 C 14,3 C 0,0 km/h (0 Bft) 0,00 %
19.05.2015 05:30 14,3 C 94 % 1005,1 hPa 0,0 l/m 0,0 km/h (0 Bft) S 179 0 min 0,000 mm 0,0 UV-I 0 W/m 13,3 C 14,3 C 0,0 km/h (0 Bft) 0,00 %
19.05.2015 05:45 14,6 C 92 % 1005,6 hPa 0,0 l/m 0,0 km/h (0 Bft) SW 225 0 min 0,000 mm 0,0 UV-I 0 W/m 13,3 C 14,6 C 0,0 km/h (0 Bft) 0,00 %
19.05.2015 06:00 14,8 C 91 % 1006,0 hPa 0,0 l/m 0,0 km/h (0 Bft) W-NW 289 0 min 0,000 mm 0,0 UV-I 6 W/m 13,3 C 14,8 C 0,0 km/h (0 Bft) 0,00 %
19.05.2015 06:15 15,0 C 87 % 1005,9 hPa 0,0 l/m 1,4 km/h (1 Bft) SW 226 0 min 0,000 mm 0,0 UV-I 41 W/m 12,9 C 15,0 C 4,0 km/h (1 Bft) 0,00 %
19.05.2015 06:30 15,4 C 82 % 1006,5 hPa 0,0 l/m 4,0 km/h (1 Bft) SW 219 0 min 0,000 mm 0,0 UV-I 76 W/m 12,3 C 15,4 C 7,9 km/h (2 Bft) 0,00 %
19.05.2015 06:45 15,8 C 81 % 1006,8 hPa 0,0 l/m 1,4 km/h (1 Bft) W-SW 251 0 min 0,000 mm 1,0 UV-I 93 W/m 12,5 C 15,8 C 4,0 km/h (1 Bft) 0,00 %
19.05.2015 07:00 15,8 C 81 % 1007,0 hPa 0,0 l/m 0,0 km/h (0 Bft) SO 128 0 min 0,000 mm 0,0 UV-I 57 W/m 12,5 C 15,8 C 0,0 km/h (0 Bft) 0,00 %
19.05.2015 07:15 15,6 C 80 % 1007,2 hPa 0,0 l/m 3,2 km/h (1 Bft) W-SW 256 0 min 0,000 mm 0,0 UV-I 42 W/m 12,2 C 15,6 C 7,9 km/h (2 Bft) 0,00 %
19.05.2015 07:30 15,6 C 79 % 1007,3 hPa 0,0 l/m 4,0 km/h (1 Bft) W 275 0 min 0,000 mm 1,0 UV-I 55 W/m 12,0 C 15,6 C 7,9 km/h (2 Bft) 0,00 %
19.05.2015 07:45 16,0 C 77 % 1007,5 hPa 0,0 l/m 1,4 km/h (1 Bft) W-SW 239 0 min 0,000 mm 1,0 UV-I 96 W/m 12,0 C 16,0 C 4,0 km/h (1 Bft) 0,00 %
19.05.2015 08:00 15,9 C 78 % 1007,7 hPa 0,0 l/m 0,4 km/h (0 Bft) SW 224 0 min 0,000 mm 1,0 UV-I 70 W/m 12,1 C 15,9 C 4,0 km/h (1 Bft) 0,00 %
19.05.2015 08:15 15,7 C 79 % 1008,1 hPa 0,0 l/m 1,4 km/h (1 Bft) S-SW 204 0 min 0,000 mm 0,0 UV-I 50 W/m 12,1 C 15,7 C 4,0 km/h (1 Bft) 0,00 %
19.05.2015 08:30 15,7 C 80 % 1007,9 hPa 0,0 l/m 5,4 km/h (1 Bft) W-SW 258 0 min 0,000 mm 1,0 UV-I 74 W/m 12,3 C 15,7 C 7,9 km/h (2 Bft) 0,00 %
19.05.2015 08:45 15,8 C 80 % 1008,0 hPa 0,0 l/m 0,4 km/h (0 Bft) S 174 0 min 0,000 mm 1,0 UV-I 83 W/m 12,4 C 15,8 C 4,0 km/h (1 Bft) 0,00 %
19.05.2015 09:00 15,9 C 78 % 1007,9 hPa 0,0 l/m 0,4 km/h (0 Bft) S-SO 147 0 min 0,000 mm 1,0 UV-I 89 W/m 12,1 C 15,9 C 4,0 km/h (1 Bft) 0,00 %
19.05.2015 09:15 15,8 C 75 % 1008,3 hPa 0,0 l/m 0,4 km/h (0 Bft) SW 220 0 min 0,000 mm 1,0 UV-I 94 W/m 11,4 C 15,8 C 4,0 km/h (1 Bft) 0,00 %
19.05.2015 09:30 15,6 C 76 % 1008,7 hPa 0,0 l/m 1,8 km/h (1 Bft) SW 232 0 min 0,000 mm 1,0 UV-I 94 W/m 11,4 C 15,6 C 4,0 km/h (1 Bft) 0,00 %
19.05.2015 09:45 15,4 C 75 % 1008,9 hPa 0,0 l/m 5,8 km/h (2 Bft) S-SW 206 0 min 0,000 mm 1,0 UV-I 100 W/m 11,0 C 15,4 C 7,9 km/h (2 Bft) 0,00 %
19.05.2015 10:00 15,3 C 72 % 1009,2 hPa 0,0 l/m 0,0 km/h (0 Bft) SO 127 0 min 0,000 mm 2,0 UV-I 99 W/m 10,3 C 15,3 C 0,0 km/h (0 Bft) 0,00 %
19.05.2015 10:15 15,7 C 72 % 1009,1 hPa 0,0 l/m 1,4 km/h (1 Bft) W 265 0 min 0,000 mm 1,0 UV-I 230 W/m 10,7 C 15,7 C 4,0 km/h (1 Bft) 0,00 %
19.05.2015 10:30 15,1 C 73 % 1009,5 hPa 0,0 l/m 0,4 km/h (0 Bft) W-SW 252 0 min 0,000 mm 1,0 UV-I 115 W/m 10,3 C 15,1 C 4,0 km/h (1 Bft) 0,00 %
19.05.2015 10:45 15,0 C 73 % 1009,6 hPa 0,0 l/m 0,0 km/h (0 Bft) NW 307 0 min 0,000 mm 1,0 UV-I 96 W/m 10,2 C 15,0 C 0,0 km/h (0 Bft) 0,00 %
19.05.2015 11:00 15,1 C 72 % 1009,8 hPa 0,0 l/m 3,2 km/h (1 Bft) W-SW 252 0 min 0,000 mm 1,0 UV-I 107 W/m 10,1 C 15,1 C 7,9 km/h (2 Bft) 0,00 %
19.05.2015 11:15 15,2 C 71 % 1009,8 hPa 0,0 l/m 0,7 km/h (0 Bft) S 175 0 min 0,000 mm 1,0 UV-I 133 W/m 10,0 C 15,2 C 4,0 km/h (1 Bft) 0,00 %
19.05.2015 11:30 15,4 C 69 % 1009,9 hPa 0,0 l/m 0,0 km/h (0 Bft) W-NW 286 0 min 0,000 mm 1,0 UV-I 153 W/m 9,7 C 15,4 C 0,0 km/h (0 Bft) 0,00 %
19.05.2015 11:45 15,7 C 68 % 1010,0 hPa 0,0 l/m 0,0 km/h (0 Bft) S-SW 194 0 min 0,000 mm 1,0 UV-I 167 W/m 9,8 C 15,7 C 0,0 km/h (0 Bft) 0,00 %
19.05.2015 12:00 15,7 C 67 % 1009,9 hPa 0,0 l/m 2,2 km/h (1 Bft) W-SW 256 0 min 0,000 mm 1,0 UV-I 165 W/m 9,6 C 15,7 C 4,0 km/h (1 Bft) 0,00 %
19.05.2015 12:15 15,9 C 68 % 1009,8 hPa 0,0 l/m 0,0 km/h (0 Bft) S 182 0 min 0,000 mm 1,0 UV-I 190 W/m 10,0 C 15,9 C 0,0 km/h (0 Bft) 0,00 %
19.05.2015 12:30 15,5 C 72 % 1009,9 hPa 0,0 l/m 2,2 km/h (1 Bft) W-SW 247 0 min 0,000 mm 1,0 UV-I 130 W/m 10,5 C 15,5 C 4,0 km/h (1 Bft) 0,00 %
19.05.2015 12:45 15,1 C 77 % 1009,9 hPa 0,0 l/m 0,0 km/h (0 Bft) S 189 0 min 0,000 mm 1,0 UV-I 105 W/m 11,1 C 15,1 C 0,0 km/h (0 Bft) 0,00 %
19.05.2015 13:00 15,3 C 74 % 1009,8 hPa 0,0 l/m 0,0 km/h (0 Bft) S 187 0 min 0,000 mm 1,0 UV-I 112 W/m 10,7 C 15,3 C 0,0 km/h (0 Bft) 0,00 %
19.05.2015 13:15 15,5 C 75 % 1009,9 hPa 0,0 l/m 0,0 km/h (0 Bft) S 182 0 min 0,000 mm 1,0 UV-I 124 W/m 11,1 C 15,5 C 0,0 km/h (0 Bft) 0,00 %
19.05.2015 13:30 15,4 C 76 % 1009,9 hPa 0,0 l/m 0,0 km/h (0 Bft) SW 219 0 min 0,000 mm 1,0 UV-I 125 W/m 11,2 C 15,4 C 0,0 km/h (0 Bft) 0,00 %
19.05.2015 13:45 14,8 C 77 % 1009,7 hPa 0,0 l/m 0,0 km/h (0 Bft) S 186 0 min 0,000 mm 1,0 UV-I 113 W/m 10,8 C 14,8 C 0,0 km/h (0 Bft) 0,00 %
19.05.2015 14:00 14,7 C 80 % 1009,8 hPa 0,0 l/m 0,0 km/h (0 Bft) SO 135 0 min 0,000 mm 1,0 UV-I 129 W/m 11,3 C 14,7 C 0,0 km/h (0 Bft) 0,00 %
19.05.2015 14:15 14,7 C 78 % 1009,6 hPa 0,0 l/m 0,0 km/h (0 Bft) O-SO 103 0 min 0,000 mm 1,0 UV-I 156 W/m 10,9 C 14,7 C 0,0 km/h (0 Bft) 0,00 %
19.05.2015 14:30 15,0 C 77 % 1009,6 hPa 0,0 l/m 0,0 km/h (0 Bft) S-SW 205 0 min 0,000 mm 1,0 UV-I 158 W/m 11,0 C 15,0 C 0,0 km/h (0 Bft) 0,00 %
19.05.2015 14:45 15,0 C 77 % 1009,5 hPa 0,0 l/m 0,0 km/h (0 Bft) N 353 0 min 0,000 mm 1,0 UV-I 163 W/m 11,0 C 15,0 C 0,0 km/h (0 Bft) 0,00 %
19.05.2015 15:00 15,1 C 80 % 1009,2 hPa 0,0 l/m 0,0 km/h (0 Bft) SO 127 0 min 0,000 mm 1,0 UV-I 142 W/m 11,7 C 15,1 C 0,0 km/h (0 Bft) 0,00 %
19.05.2015 15:15 15,0 C 80 % 1009,2 hPa 0,0 l/m 0,0 km/h (0 Bft) SO 139 0 min 0,000 mm 1,0 UV-I 115 W/m 11,6 C 15,0 C 0,0 km/h (0 Bft) 0,00 %
19.05.2015 15:30 15,1 C 80 % 1009,0 hPa 0,0 l/m 0,0 km/h (0 Bft) O-SO 114 0 min 0,000 mm 1,0 UV-I 133 W/m 11,7 C 15,1 C 0,0 km/h (0 Bft) 0,00 %
19.05.2015 15:45 15,0 C 81 % 1008,6 hPa 0,0 l/m 0,0 km/h (0 Bft) O 92 0 min 0,000 mm 1,0 UV-I 133 W/m 11,8 C 15,0 C 0,0 km/h (0 Bft) 0,00 %
19.05.2015 16:00 14,8 C 83 % 1008,4 hPa 0,3 l/m 0,0 km/h (0 Bft) S 175 0 min 0,000 mm 1,0 UV-I 110 W/m 11,9 C 14,8 C 0,0 km/h (0 Bft) 0,00 %
19.05.2015 16:15 14,5 C 85 % 1008,4 hPa 0,0 l/m 0,0 km/h (0 Bft) SO 139 0 min 0,000 mm 1,0 UV-I 82 W/m 12,0 C 14,5 C 0,0 km/h (0 Bft) 0,00 %
19.05.2015 16:30 14,4 C 88 % 1008,1 hPa 0,0 l/m 0,0 km/h (0 Bft) O 88 0 min 0,000 mm 0,0 UV-I 60 W/m 12,4 C 14,4 C 0,0 km/h (0 Bft) 0,00 %
19.05.2015 16:45 14,2 C 90 % 1008,1 hPa 0,0 l/m 0,0 km/h (0 Bft) N-NW 336 0 min 0,000 mm 0,0 UV-I 62 W/m 12,6 C 14,2 C 0,0 km/h (0 Bft) 0,00 %
19.05.2015 17:00 14,3 C 90 % 1008,1 hPa 0,0 l/m 0,0 km/h (0 Bft) SO 125 0 min 0,000 mm 1,0 UV-I 57 W/m 12,7 C 14,3 C 0,0 km/h (0 Bft) 0,00 %
19.05.2015 17:15 14,4 C 89 % 1008,1 hPa 0,0 l/m 0,0 km/h (0 Bft) O 83 0 min 0,000 mm 1,0 UV-I 93 W/m 12,6 C 14,4 C 0,0 km/h (0 Bft) 0,00 %
19.05.2015 17:30 14,6 C 89 % 1008,0 hPa 0,0 l/m 0,0 km/h (0 Bft) O-NO 76 0 min 0,000 mm 1,0 UV-I 116 W/m 12,8 C 14,6 C 0,0 km/h (0 Bft) 0,00 %
19.05.2015 17:45 14,4 C 90 % 1008,0 hPa 0,0 l/m 0,0 km/h (0 Bft) O-SO 114 0 min 0,000 mm 1,0 UV-I 76 W/m 12,8 C 14,4 C 0,0 km/h (0 Bft) 0,00 %
19.05.2015 18:00 14,3 C 90 % 1008,1 hPa 0,0 l/m 0,7 km/h (0 Bft) O 97 0 min 0,000 mm 1,0 UV-I 51 W/m 12,7 C 14,3 C 4,0 km/h (1 Bft) 0,00 %
19.05.2015 18:15 14,2 C 89 % 1008,1 hPa 0,0 l/m 0,0 km/h (0 Bft) O 99 0 min 0,000 mm 0,0 UV-I 52 W/m 12,4 C 14,2 C 0,0 km/h (0 Bft) 0,00 %
19.05.2015 18:30 14,3 C 91 % 1008,2 hPa 0,0 l/m 2,9 km/h (1 Bft) N-NO 27 0 min 0,000 mm 0,0 UV-I 51 W/m 12,8 C 14,3 C 4,0 km/h (1 Bft) 0,00 %
19.05.2015 18:45 14,2 C 92 % 1008,4 hPa 0,0 l/m 0,0 km/h (0 Bft) N-NW 347 0 min 0,000 mm 0,0 UV-I 27 W/m 12,9 C 14,2 C 0,0 km/h (0 Bft) 0,00 %
19.05.2015 19:00 14,0 C 92 % 1008,5 hPa 0,0 l/m 0,0 km/h (0 Bft) W-NW 292 0 min 0,000 mm 0,0 UV-I 23 W/m 12,7 C 14,0 C 0,0 km/h (0 Bft) 0,00 %
19.05.2015 19:15 13,9 C 92 % 1008,6 hPa 0,0 l/m 0,0 km/h (0 Bft) S 183 0 min 0,000 mm 0,0 UV-I 11 W/m 12,6 C 13,9 C 0,0 km/h (0 Bft) 0,00 %
19.05.2015 19:30 13,8 C 91 % 1008,9 hPa 0,0 l/m 0,0 km/h (0 Bft) S 183 0 min 0,000 mm 0,0 UV-I 8 W/m 12,4 C 13,8 C 0,0 km/h (0 Bft) 0,00 %
19.05.2015 19:45 13,8 C 92 % 1008,9 hPa 0,3 l/m 0,0 km/h (0 Bft) S 183 0 min 0,000 mm 0,0 UV-I 0 W/m 12,5 C 13,8 C 0,0 km/h (0 Bft) 0,00 %
19.05.2015 20:00 13,7 C 92 % 1009,3 hPa 0,0 l/m 0,0 km/h (0 Bft) S 184 0 min 0,000 mm 0,0 UV-I 0 W/m 12,4 C 13,7 C 0,0 km/h (0 Bft) 0,00 %
19.05.2015 20:15 13,7 C 93 % 1009,8 hPa 0,0 l/m 0,0 km/h (0 Bft) S 181 0 min 0,000 mm 0,0 UV-I 0 W/m 12,6 C 13,7 C 0,0 km/h (0 Bft) 0,00 %
19.05.2015 20:30 13,5 C 94 % 1009,5 hPa 0,3 l/m 0,0 km/h (0 Bft) S 187 0 min 0,000 mm 0,0 UV-I 0 W/m 12,6 C 13,5 C 0,0 km/h (0 Bft) 0,00 %
19.05.2015 20:45 13,3 C 95 % 1009,9 hPa 0,0 l/m 0,0 km/h (0 Bft) S-SW 197 0 min 0,000 mm 0,0 UV-I 0 W/m 12,5 C 13,3 C 0,0 km/h (0 Bft) 0,00 %
19.05.2015 21:00 13,0 C 95 % 1010,0 hPa 0,0 l/m 0,0 km/h (0 Bft) S-SW 194 0 min 0,000 mm 0,0 UV-I 0 W/m 12,2 C 13,0 C 0,0 km/h (0 Bft) 0,00 %
19.05.2015 21:15 12,9 C 94 % 1010,1 hPa 0,0 l/m 0,0 km/h (0 Bft) S-SW 193 0 min 0,000 mm 0,0 UV-I 0 W/m 12,0 C 12,9 C 0,0 km/h (0 Bft) 0,00 %
19.05.2015 21:30 12,7 C 94 % 1010,7 hPa 0,0 l/m 0,0 km/h (0 Bft) S-SW 203 0 min 0,000 mm 0,0 UV-I 0 W/m 11,8 C 12,7 C 0,0 km/h (0 Bft) 0,00 %
19.05.2015 21:45 12,5 C 94 % 1010,8 hPa 0,3 l/m 0,0 km/h (0 Bft) S 173 0 min 0,000 mm 0,0 UV-I 0 W/m 11,6 C 12,5 C 0,0 km/h (0 Bft) 0,00 %
19.05.2015 22:00 12,2 C 94 % 1011,1 hPa 0,0 l/m 0,0 km/h (0 Bft) S 189 0 min 0,000 mm 0,0 UV-I 0 W/m 11,3 C 12,2 C 0,0 km/h (0 Bft) 0,00 %
19.05.2015 22:15 12,1 C 94 % 1011,0 hPa 0,3 l/m 0,0 km/h (0 Bft) S-SW 196 0 min 0,000 mm 0,0 UV-I 0 W/m 11,2 C 12,1 C 0,0 km/h (0 Bft) 0,00 %
19.05.2015 22:30 12,1 C 94 % 1010,5 hPa 0,9 l/m 0,0 km/h (0 Bft) S-SW 200 0 min 0,000 mm 0,0 UV-I 0 W/m 11,2 C 12,1 C 0,0 km/h (0 Bft) 0,00 %
19.05.2015 22:45 12,0 C 95 % 1010,3 hPa 0,0 l/m 0,0 km/h (0 Bft) S-SW 194 0 min 0,000 mm 0,0 UV-I 0 W/m 11,2 C 12,0 C 0,0 km/h (0 Bft) 0,00 %
19.05.2015 23:00 12,0 C 96 % 1010,5 hPa 0,0 l/m 0,0 km/h (0 Bft) SW 219 0 min 0,000 mm 0,0 UV-I 0 W/m 11,4 C 12,0 C 0,0 km/h (0 Bft) 0,00 %
19.05.2015 23:15 12,0 C 96 % 1010,6 hPa 0,0 l/m 0,0 km/h (0 Bft) SW 218 0 min 0,000 mm 0,0 UV-I 0 W/m 11,4 C 12,0 C 0,0 km/h (0 Bft) 0,00 %
19.05.2015 23:30 12,0 C 96 % 1010,6 hPa 0,0 l/m 0,0 km/h (0 Bft) SW 218 0 min 0,000 mm 0,0 UV-I 0 W/m 11,4 C 12,0 C 0,0 km/h (0 Bft) 0,00 %
19.05.2015 23:45 12,0 C 97 % 1010,5 hPa 0,0 l/m 0,0 km/h (0 Bft) SW 218 0 min 0,000 mm 0,0 UV-I 0 W/m 11,5 C 12,0 C 0,0 km/h (0 Bft) 0,00 %
_ Min-Zeit 22:45 12:00 04:45 - 00:00 - - - - - - 12:00 22:45 00:00 00:00
Minimum _ 12,0 C 67 % 1004,4 hPa - 0,0 km/h (0 Bft) - - - - - - 9,6 C 12,0 C 0,0 km/h (0 Bft) 0,00 %
_ Max-Zeit 07:45 23:45 22:00 22:30 09:45 - - 00:00 00:00 10:00 10:15 05:00 07:45 06:30 00:00
Maximum _ 16,0 C 97 % 1011,1 hPa 0,9 l/m 5,8 km/h
S-SW (2 Bft)
- - 0 min 0,000 mm 2,0 UV-I 230 W/m 13,4 C 16,0 C 7,9 km/h
SW (2 Bft)
0,00 %
Durchschnitt _ 14,7 C 84 % 1008,1 hPa #2,4 l/m 0,5 km/h (0 Bft) W-SW - #0 min. #0,000 mm 1,0 UV-I 96 W/m 12,0 C 14,7 C 1,2 km/h (1 Bft) 0,00 %